Voltar ao catálogo

FENGYUN 1C DEB

AtivoPO
NORAD 29986·DEBRIS·🇨🇳 China

Lançado May 10, 1999 de Taiyuan Satellite Launch Center

Loading…

Próximas Passagens (próximas 24 horas)

TLE

AtualizadoSource: Space-Track

Época: Sep 14, 2026, 05:08 UTC

1 29986U 99025LL  26257.21429399  .00002198  00000-0  85180-3 0  9995
2 29986  99.3877 351.4831 0021970 281.2001 108.6194 14.31024348 14191

Acompanhe FENGYUN 1C DEB em tempo real com AllMySat

Download on the App Store